CFG8WY LGKO-EDDF

Flight info

Callsign CFG8WY
Flight time N/A
Altitude 32000
Route LARKI L609 URNIL UL609 MES UL608 FSK/N0450F340 UL608 DISOR DCT LONTA UL608 DOLEV DCT AGLIB/N0447F360 DCT PODET DCT RADLY DCT SIMBA DCT AKINI T161 DEBHI DEBHI1B
Aircraft A321/M-SDE3FGHIRWY/LB1

Departure

Time 2026-05-05 09:17
Airport Kos International Airport "Ippokratis" (LGKO)

Arrival

Time N/A
Airport Frankfurt Main Airport (EDDF)
Time Latitude Longitude Altitude Speed Heading
2026-05-05 09:07 36.80145 27.08926 419 ft 0 kts 58°
2026-05-05 09:09 36.80135 27.08905 413 ft 4 kts 58°
2026-05-05 09:09 36.80123 27.08882 410 ft 4 kts 65°
2026-05-05 09:09 36.80118 27.08852 409 ft 4 kts 107°
2026-05-05 09:09 36.80131 27.08830 413 ft 4 kts 148°
2026-05-05 09:10 36.80147 27.08817 409 ft 0 kts 148°
2026-05-05 09:11 36.80144 27.08819 409 ft 3 kts 148°
2026-05-05 09:12 36.80100 27.08854 410 ft 11 kts 148°
2026-05-05 09:12 36.80037 27.08903 416 ft 12 kts 148°
2026-05-05 09:12 36.79955 27.08967 411 ft 14 kts 151°
2026-05-05 09:12 36.79866 27.08983 410 ft 13 kts 178°
2026-05-05 09:13 36.79785 27.08986 419 ft 11 kts 178°
2026-05-05 09:13 36.79712 27.08989 419 ft 10 kts 178°
2026-05-05 09:13 36.79623 27.08995 418 ft 16 kts 172°
2026-05-05 09:13 36.79506 27.09072 414 ft 23 kts 148°
2026-05-05 09:14 36.79356 27.09192 413 ft 28 kts 147°
2026-05-05 09:14 36.79186 27.09328 405 ft 30 kts 148°
2026-05-05 09:14 36.79009 27.09466 395 ft 30 kts 148°
2026-05-05 09:14 36.78833 27.09603 393 ft 30 kts 147°
2026-05-05 09:15 36.78666 27.09735 393 ft 26 kts 148°
2026-05-05 09:15 36.78592 27.09824 389 ft 7 kts 125°
2026-05-05 09:15 36.78560 27.09821 388 ft 5 kts 234°
2026-05-05 09:15 36.78564 27.09807 388 ft 0 kts 313°
2026-05-05 09:16 36.78566 27.09806 388 ft 0 kts 324°
2026-05-05 09:16 36.78568 27.09804 388 ft 0 kts 325°
2026-05-05 09:16 36.78612 27.09770 391 ft 32 kts 329°
2026-05-05 09:17 36.79050 27.09438 399 ft 112 kts 328°
2026-05-05 09:17 36.79885 27.08776 453 ft 168 kts 327°
2026-05-05 09:17 36.80818 27.07954 1398 ft 157 kts 322°
2026-05-05 09:17 36.81479 27.06878 2177 ft 161 kts 294°
2026-05-05 09:18 36.81575 27.05407 2374 ft 187 kts 262°
2026-05-05 09:18 36.81362 27.04304 2531 ft 199 kts 266°
2026-05-05 09:18 36.81568 27.02628 2690 ft 207 kts 301°
2026-05-05 09:18 36.82416 27.01059 2854 ft 229 kts 311°
2026-05-05 09:19 36.83449 26.99464 3344 ft 241 kts 311°
2026-05-05 09:19 36.84506 26.97803 4016 ft 247 kts 311°
2026-05-05 09:19 36.85544 26.96074 4735 ft 251 kts 311°
2026-05-05 09:19 36.86564 26.94279 5451 ft 254 kts 310°
2026-05-05 09:20 36.87563 26.92437 6179 ft 258 kts 309°
2026-05-05 09:20 36.88557 26.90552 6866 ft 261 kts 309°
2026-05-05 09:20 36.89551 26.88637 7537 ft 264 kts 308°
2026-05-05 09:20 36.90549 26.86692 8180 ft 268 kts 308°
2026-05-05 09:21 36.91553 26.84721 8866 ft 270 kts 308°
2026-05-05 09:21 36.92568 26.82726 9540 ft 273 kts 307°
2026-05-05 09:21 36.93590 26.80720 10177 ft 276 kts 307°
2026-05-05 09:21 36.94639 26.78617 10408 ft 295 kts 304°
2026-05-05 09:22 36.95670 26.76294 10534 ft 317 kts 302°
2026-05-05 09:22 36.96898 26.73938 10687 ft 329 kts 316°
2026-05-05 09:22 36.98739 26.72260 11127 ft 330 kts 338°
2026-05-05 09:22 37.00969 26.71629 11666 ft 332 kts 360°
2026-05-05 09:23 37.03242 26.72166 12226 ft 338 kts 21°
2026-05-05 09:23 37.05207 26.73818 12782 ft 348 kts 42°
2026-05-05 09:23 37.06881 26.76027 13345 ft 350 kts 38°
2026-05-05 09:23 37.08916 26.77667 13883 ft 349 kts 21°
2026-05-05 09:24 37.11234 26.78537 14360 ft 349 kts
2026-05-05 09:24 37.13652 26.78929 14836 ft 352 kts
2026-05-05 09:24 37.16097 26.79349 15312 ft 357 kts
2026-05-05 09:24 37.18569 26.79804 15782 ft 361 kts
2026-05-05 09:25 37.21065 26.80281 16266 ft 365 kts
2026-05-05 09:25 37.23586 26.80768 16726 ft 368 kts
2026-05-05 09:25 37.26134 26.81257 17177 ft 372 kts
2026-05-05 09:25 37.28681 26.81737 17614 ft 376 kts
2026-05-05 09:26 37.31277 26.82222 18065 ft 380 kts
2026-05-05 09:26 37.33906 26.82711 18475 ft 384 kts
2026-05-05 09:26 37.36567 26.82910 18841 ft 383 kts 354°
2026-05-05 09:26 37.39201 26.82407 19240 ft 382 kts 342°
2026-05-05 09:27 37.41686 26.81236 19634 ft 382 kts 332°
2026-05-05 09:27 37.43933 26.79458 20016 ft 383 kts 320°
2026-05-05 09:27 37.45967 26.77287 20412 ft 384 kts 318°
2026-05-05 09:27 37.48002 26.75087 20812 ft 387 kts 318°
2026-05-05 09:28 37.50049 26.72874 21214 ft 389 kts 318°
2026-05-05 09:28 37.52107 26.70647 21608 ft 391 kts 318°
2026-05-05 09:28 37.54175 26.68411 21996 ft 393 kts 318°
2026-05-05 09:28 37.56258 26.66158 22382 ft 396 kts 318°
2026-05-05 09:29 37.58353 26.63890 22763 ft 398 kts 318°
2026-05-05 09:29 37.60460 26.61608 23148 ft 400 kts 318°
2026-05-05 09:29 37.62560 26.59332 23524 ft 403 kts 318°
2026-05-05 09:29 37.64713 26.56996 23861 ft 405 kts 318°